Location: Deurze
(52.9838°N, 6.6090°E)
Time: 18:46:36
(UTC+00:00)

Cosmos 2369 Rocket - Pass Details

Date: 11 March 2026
Orbit: 829 x 850 km, 71.0° (Epoch: 20 April)

Event Time Altitude Azimuth Distance (km) Brightness Sun altitude
Rises 22:17:37 0° 264° (W) 3,410 5.6 -37.4°
Reaches altitude 10° 22:20:41 10° 280° (W) 2,474 5.0 -37.6°
Maximum altitude 22:24:58 21° 329° (NNW) 1,800 4.4 -37.9°
Drops below altitude 10° 22:29:14 10° 18° (NNE) 2,470 5.1 -38.1°
Sets 22:32:18 0° 34° (NE) 3,404 5.7 -38.3°
